Time,TemperatureF,DewpointF,PressureIn,WindDirection,WindDirectionDegrees,WindSpeedMPH,WindSpeedGustMPH,Humidity,HourlyPrecipIn,Conditions,Clouds,dailyrainin,SoftwareType,DateUTC
2013-01-22 00:01:00,24.7,9.9,29.87,WSW,248,1.8,3.4,53,2.59,,,0.00,WUHU216HW,2013-01-22 05:01:00,
2013-01-22 00:05:00,24.5,9.7,29.87,WSW,248,1.1,2.5,53,0.00,,,0.00,WUHU216HW,2013-01-22 05:05:00,
2013-01-22 00:06:00,24.5,9.7,29.87,WSW,248,1.1,2.5,53,2.59,,,0.01,WUHU216HW,2013-01-22 05:06:00,
2013-01-22 00:11:00,24.3,10.0,29.86,NW,315,1.1,1.8,54,2.59,,,0.01,WUHU216HW,2013-01-22 05:11:00,
2013-01-22 00:16:00,24.3,10.0,29.86,West,270,0.4,2.5,54,0.00,,,0.00,WUHU216HW,2013-01-22 05:16:00,
2013-01-22 00:21:00,24.1,10.2,29.86,NW,315,1.8,2.5,55,2.59,,,0.01,WUHU216HW,2013-01-22 05:21:00,
2013-01-22 00:26:00,24.1,10.6,29.86,WNW,293,2.2,3.1,56,0.00,,,0.00,WUHU216HW,2013-01-22 05:26:00,
2013-01-22 00:31:00,24.1,10.6,29.86,SSW,203,1.8,4.5,56,2.59,,,0.01,WUHU216HW,2013-01-22 05:31:00,
2013-01-22 00:36:00,24.1,10.6,29.86,NW,315,2.0,4.5,56,0.00,,,0.00,WUHU216HW,2013-01-22 05:36:00,
2013-01-22 00:41:00,23.9,10.9,29.86,WSW,248,1.1,4.7,57,2.59,,,0.01,WUHU216HW,2013-01-22 05:41:00,
2013-01-22 00:46:00,23.8,10.7,29.86,NW,315,0.7,4.7,57,0.00,,,0.00,WUHU216HW,2013-01-22 05:46:00,
2013-01-22 00:51:00,23.8,11.1,29.86,West,270,2.0,4.3,58,2.59,,,0.01,WUHU216HW,2013-01-22 05:51:00,
2013-01-22 00:56:00,23.6,11.4,29.87,West,270,1.8,4.0,59,0.00,,,0.00,WUHU216HW,2013-01-22 05:56:00,
2013-01-22 01:01:00,23.4,11.2,29.86,North,0,2.2,4.0,59,2.59,,,0.01,WUHU216HW,2013-01-22 06:01:00,
2013-01-22 01:06:00,23.4,11.2,29.87,NW,315,2.5,4.0,59,0.00,,,0.00,WUHU216HW,2013-01-22 06:06:00,
2013-01-22 01:11:00,23.4,11.2,29.87,NNW,338,1.8,4.0,59,2.59,,,0.02,WUHU216HW,2013-01-22 06:11:00,
2013-01-22 01:16:00,23.2,11.0,29.87,NW,315,2.7,4.0,59,0.00,,,0.00,WUHU216HW,2013-01-22 06:16:00,
2013-01-22 01:21:00,23.2,11.3,29.87,WSW,248,1.1,4.0,60,2.59,,,0.02,WUHU216HW,2013-01-22 06:21:00,
2013-01-22 01:26:00,23.0,11.2,29.88,WSW,248,2.0,2.7,60,2.59,,,0.02,WUHU216HW,2013-01-22 06:26:00,
2013-01-22 01:36:00,22.9,11.3,29.88,North,0,0.7,5.1,61,0.00,,,0.00,WUHU216HW,2013-01-22 06:36:00,
2013-01-22 01:41:00,22.9,11.3,29.88,WSW,248,4.7,4.7,61,2.59,,,0.02,WUHU216HW,2013-01-22 06:41:00,
2013-01-22 01:46:00,22.9,11.3,29.88,WNW,293,3.6,6.3,61,2.59,,,0.02,WUHU216HW,2013-01-22 06:46:00,
2013-01-22 01:56:00,22.7,10.8,29.89,West,270,1.1,3.4,60,0.00,,,0.00,WUHU216HW,2013-01-22 06:56:00,
2013-01-22 02:01:00,22.7,11.2,29.89,NW,315,5.8,5.8,61,2.59,,,0.02,WUHU216HW,2013-01-22 07:01:00,
2013-01-22 02:06:00,22.7,11.2,29.89,West,270,4.3,5.8,61,2.59,,,0.03,WUHU216HW,2013-01-22 07:06:00,
2013-01-22 02:16:00,22.3,10.9,29.89,West,270,1.8,4.7,61,0.00,,,0.00,WUHU216HW,2013-01-22 07:16:00,
2013-01-22 02:21:00,22.1,11.1,29.89,WNW,293,3.1,4.0,62,2.59,,,0.03,WUHU216HW,2013-01-22 07:21:00,
2013-01-22 02:26:00,22.0,10.9,29.90,NW,315,2.9,3.1,62,2.59,,,0.03,WUHU216HW,2013-01-22 07:26:00,
2013-01-22 02:36:00,21.8,10.4,29.90,WNW,293,3.4,5.4,61,0.00,,,0.00,WUHU216HW,2013-01-22 07:36:00,
2013-01-22 02:41:00,21.8,10.0,29.90,WNW,293,2.9,6.3,60,2.59,,,0.03,WUHU216HW,2013-01-22 07:41:00,
2013-01-22 02:46:00,21.6,9.9,29.90,West,270,2.5,6.3,60,2.59,,,0.03,WUHU216HW,2013-01-22 07:46:00,
2013-01-22 02:56:00,21.2,9.5,29.90,West,270,4.3,4.7,60,0.00,,,0.00,WUHU216HW,2013-01-22 07:56:00,
2013-01-22 03:01:00,21.2,9.5,29.90,NW,315,3.6,4.5,60,2.59,,,0.03,WUHU216HW,2013-01-22 08:01:00,
2013-01-22 03:06:00,21.1,10.1,29.90,NNW,338,3.4,4.5,62,2.59,,,0.04,WUHU216HW,2013-01-22 08:06:00,
2013-01-22 03:16:00,20.9,10.9,29.91,North,0,8.5,8.5,65,0.00,,,0.00,WUHU216HW,2013-01-22 08:16:00,
2013-01-22 03:21:00,20.7,10.4,29.91,West,270,3.1,8.5,64,2.59,,,0.04,WUHU216HW,2013-01-22 08:21:00,
2013-01-22 03:26:00,20.7,10.4,29.91,North,0,3.4,4.0,64,2.59,,,0.04,WUHU216HW,2013-01-22 08:26:00,
2013-01-22 03:36:00,20.3,10.4,29.91,WNW,293,2.0,3.6,65,0.00,,,0.00,WUHU216HW,2013-01-22 08:36:00,
2013-01-22 03:41:00,20.3,10.0,29.91,North,0,1.1,3.4,64,2.59,,,0.04,WUHU216HW,2013-01-22 08:41:00,
2013-01-22 03:46:00,20.2,9.5,29.91,NW,315,1.8,3.4,63,2.59,,,0.04,WUHU216HW,2013-01-22 08:46:00,
2013-01-22 03:56:00,20.2,9.5,29.92,West,270,4.5,4.5,63,0.00,,,0.00,WUHU216HW,2013-01-22 08:56:00,
2013-01-22 04:01:00,20.0,9.6,29.92,NNW,338,0.4,4.7,64,2.59,,,0.04,WUHU216HW,2013-01-22 09:01:00,
2013-01-22 04:06:00,19.8,9.8,29.92,WNW,293,2.9,4.7,65,2.59,,,0.05,WUHU216HW,2013-01-22 09:06:00,
2013-01-22 04:16:00,19.4,9.5,29.93,SW,225,2.5,2.9,65,0.00,,,0.00,WUHU216HW,2013-01-22 09:16:00,
2013-01-22 04:21:00,19.4,9.1,29.93,NNW,338,0.4,2.5,64,2.59,,,0.05,WUHU216HW,2013-01-22 09:21:00,
2013-01-22 04:26:00,19.3,8.9,29.93,SW,225,1.8,2.0,64,2.59,,,0.05,WUHU216HW,2013-01-22 09:26:00,
2013-01-22 04:36:00,19.1,8.5,29.93,SW,225,0.4,3.8,63,0.00,,,0.00,WUHU216HW,2013-01-22 09:36:00,
2013-01-22 04:41:00,19.1,8.5,29.93,NW,315,0.4,3.8,63,2.59,,,0.05,WUHU216HW,2013-01-22 09:41:00,
2013-01-22 04:46:00,19.1,8.1,29.94,West,270,2.7,3.1,62,2.59,,,0.05,WUHU216HW,2013-01-22 09:46:00,
2013-01-22 04:56:00,18.9,7.6,29.94,NW,315,3.4,4.9,61,0.00,,,0.00,WUHU216HW,2013-01-22 09:56:00,
2013-01-22 05:01:00,18.9,7.6,29.94,NW,315,0.7,4.9,61,2.59,,,0.05,WUHU216HW,2013-01-22 10:01:00,
2013-01-22 05:06:00,18.7,7.5,29.95,NW,315,1.3,3.1,61,2.59,,,0.06,WUHU216HW,2013-01-22 10:06:00,
2013-01-22 05:16:00,18.5,7.3,29.96,NW,315,2.0,3.4,61,0.00,,,0.00,WUHU216HW,2013-01-22 10:16:00,
2013-01-22 05:21:00,18.5,7.3,29.96,NW,315,1.8,3.4,61,2.59,,,0.06,WUHU216HW,2013-01-22 10:21:00,
2013-01-22 05:26:00,18.4,7.1,29.96,NNW,338,1.8,2.5,61,2.59,,,0.06,WUHU216HW,2013-01-22 10:26:00,
2013-01-22 05:36:00,18.4,7.1,29.97,WNW,293,5.4,5.4,61,0.00,,,0.00,WUHU216HW,2013-01-22 10:36:00,
2013-01-22 05:41:00,18.4,7.1,29.97,West,270,3.6,5.4,61,2.59,,,0.06,WUHU216HW,2013-01-22 10:41:00,
2013-01-22 05:46:00,18.2,6.9,29.97,NNW,338,0.4,3.6,61,2.59,,,0.06,WUHU216HW,2013-01-22 10:46:00,
2013-01-22 05:56:00,18.2,6.9,29.98,NNW,338,0.7,4.0,61,0.00,,,0.00,WUHU216HW,2013-01-22 10:56:00,
2013-01-22 06:01:00,18.2,6.9,29.98,NNW,338,0.4,4.0,61,2.59,,,0.06,WUHU216HW,2013-01-22 11:01:00,
2013-01-22 06:06:00,18.2,6.9,29.98,NW,315,3.1,3.1,61,2.59,,,0.07,WUHU216HW,2013-01-22 11:06:00,
2013-01-22 06:16:00,18.0,6.8,29.99,West,270,1.1,4.3,61,0.00,,,0.00,WUHU216HW,2013-01-22 11:16:00,
2013-01-22 06:21:00,18.0,6.8,29.99,NW,315,1.1,4.0,61,2.59,,,0.07,WUHU216HW,2013-01-22 11:21:00,
2013-01-22 06:26:00,18.0,6.8,29.99,WSW,248,2.0,4.0,61,0.00,,,0.00,WUHU216HW,2013-01-22 11:26:00,
2013-01-22 06:32:00,17.8,6.7,30.00,NNW,338,1.3,2.7,61,2.59,,,0.07,WUHU216HW,2013-01-22 11:32:00,
2013-01-22 06:37:00,17.8,6.7,30.00,WNW,293,2.2,2.5,61,0.00,,,0.00,WUHU216HW,2013-01-22 11:37:00,
2013-01-22 06:42:00,17.6,6.5,30.00,WSW,248,4.0,4.0,61,2.59,,,0.07,WUHU216HW,2013-01-22 11:42:00,
2013-01-22 06:47:00,17.5,6.3,30.00,WSW,248,4.5,4.5,61,0.00,,,0.00,WUHU216HW,2013-01-22 11:47:00,
2013-01-22 06:56:00,17.3,6.1,30.01,West,270,1.1,4.5,61,0.00,,,0.00,WUHU216HW,2013-01-22 11:56:00,
2013-01-22 07:02:00,17.3,6.1,30.01,NW,315,0.9,4.3,61,2.59,,,0.07,WUHU216HW,2013-01-22 12:02:00,
2013-01-22 07:07:00,17.1,6.0,30.01,NNW,338,0.0,4.3,61,0.00,,,0.00,WUHU216HW,2013-01-22 12:07:00,
2013-01-22 07:12:00,17.1,6.0,30.01,NW,315,0.7,1.8,61,2.59,,,0.08,WUHU216HW,2013-01-22 12:12:00,
2013-01-22 07:18:00,16.9,5.8,30.01,North,0,0.4,2.5,61,2.59,,,0.08,WUHU216HW,2013-01-22 12:18:00,
2013-01-22 07:26:00,16.7,5.6,30.02,NW,315,1.1,3.1,61,0.00,,,0.00,WUHU216HW,2013-01-22 12:26:00,
2013-01-22 07:32:00,16.6,5.4,30.02,West,270,2.5,3.1,61,2.59,,,0.08,WUHU216HW,2013-01-22 12:32:00,
2013-01-22 07:37:00,16.6,5.8,30.02,NNW,338,0.7,2.5,62,0.00,,,0.00,WUHU216HW,2013-01-22 12:37:00,
2013-01-22 07:46:00,16.6,5.4,30.03,SW,225,1.3,2.7,61,0.00,,,0.00,WUHU216HW,2013-01-22 12:46:00,
2013-01-22 07:52:00,16.6,5.4,30.03,NW,315,4.0,4.0,61,2.59,,,0.08,WUHU216HW,2013-01-22 12:52:00,
2013-01-22 07:57:00,16.6,5.4,30.04,WNW,293,2.7,4.3,61,0.00,,,0.00,WUHU216HW,2013-01-22 12:57:00,
2013-01-22 08:07:00,16.6,5.4,30.04,WNW,293,3.4,4.5,61,0.00,,,0.00,WUHU216HW,2013-01-22 13:07:00,
2013-01-22 08:12:00,16.7,5.6,30.04,WSW,248,1.8,4.5,61,2.59,,,0.09,WUHU216HW,2013-01-22 13:12:00,
2013-01-22 08:17:00,16.7,5.6,30.04,WNW,293,1.8,4.0,61,0.00,,,0.00,WUHU216HW,2013-01-22 13:17:00,
2013-01-22 08:27:00,16.7,5.6,30.04,WNW,293,4.0,5.4,61,0.00,,,0.00,WUHU216HW,2013-01-22 13:27:00,
2013-01-22 08:32:00,16.9,5.4,30.05,NW,315,3.6,5.4,60,2.59,,,0.09,WUHU216HW,2013-01-22 13:32:00,
2013-01-22 08:37:00,17.1,5.6,30.05,WSW,248,1.8,4.7,60,0.00,,,0.00,WUHU216HW,2013-01-22 13:37:00,
2013-01-22 08:47:00,17.1,5.2,30.05,WNW,293,3.6,4.3,59,0.00,,,0.00,WUHU216HW,2013-01-22 13:47:00,
2013-01-22 08:52:00,17.1,4.8,30.06,NW,315,1.8,6.5,58,2.59,,,0.09,WUHU216HW,2013-01-22 13:52:00,
2013-01-22 08:57:00,17.6,5.3,30.06,NNW,338,0.9,6.5,58,0.00,,,0.00,WUHU216HW,2013-01-22 13:57:00,
2013-01-22 09:07:00,17.8,5.1,30.06,West,270,1.8,4.7,57,0.00,,,0.00,WUHU216HW,2013-01-22 14:07:00,
2013-01-22 09:12:00,18.2,3.4,30.06,WNW,293,6.3,6.3,52,2.59,,,0.10,WUHU216HW,2013-01-22 14:12:00,
2013-01-22 09:17:00,18.2,3.4,30.06,NNW,338,4.5,6.5,52,0.00,,,0.00,WUHU216HW,2013-01-22 14:17:00,
2013-01-22 09:27:00,18.2,3.1,30.06,WSW,248,2.7,4.9,51,0.00,,,0.00,WUHU216HW,2013-01-22 14:27:00,
2013-01-22 09:32:00,18.4,3.3,30.06,WNW,293,1.1,5.6,51,2.59,,,0.10,WUHU216HW,2013-01-22 14:32:00,
2013-01-22 09:37:00,18.9,2.8,30.06,NW,315,4.0,8.3,49,0.00,,,0.00,WUHU216HW,2013-01-22 14:37:00,
2013-01-22 09:47:00,19.1,3.0,30.07,North,0,4.5,5.1,49,2.59,,,0.10,WUHU216HW,2013-01-22 14:47:00,
2013-01-22 09:52:00,18.9,3.3,30.07,NNW,338,1.8,5.1,50,2.59,,,0.10,WUHU216HW,2013-01-22 14:52:00,
2013-01-22 09:57:00,19.1,3.0,30.07,West,270,5.4,5.4,49,0.00,,,0.00,WUHU216HW,2013-01-22 14:57:00,
2013-01-22 10:07:00,18.9,2.3,30.07,NNW,338,1.1,6.9,48,2.59,,,0.11,WUHU216HW,2013-01-22 15:07:00,
2013-01-22 10:12:00,19.4,1.9,30.07,NW,315,3.1,4.9,46,2.59,,,0.11,WUHU216HW,2013-01-22 15:12:00,
2013-01-22 10:17:00,19.6,1.2,30.08,West,270,5.6,5.6,44,0.00,,,0.00,WUHU216HW,2013-01-22 15:17:00,
2013-01-22 10:27:00,19.1,1.6,30.08,WSW,248,1.8,5.8,46,2.59,,,0.11,WUHU216HW,2013-01-22 15:27:00,
2013-01-22 10:32:00,18.7,1.7,30.08,West,270,4.0,5.8,47,2.59,,,0.11,WUHU216HW,2013-01-22 15:32:00,
2013-01-22 10:37:00,19.3,2.7,30.08,WSW,248,5.1,5.1,48,0.00,,,0.00,WUHU216HW,2013-01-22 15:37:00,
2013-01-22 10:47:00,19.4,1.9,30.07,NW,315,2.5,5.6,46,2.59,,,0.11,WUHU216HW,2013-01-22 15:47:00,
2013-01-22 10:52:00,19.8,1.8,30.08,NNE,23,2.7,4.5,45,2.59,,,0.11,WUHU216HW,2013-01-22 15:52:00,
2013-01-22 10:57:00,19.8,0.8,30.07,NW,315,7.4,7.4,43,2.59,,,0.11,WUHU216HW,2013-01-22 15:57:00,
2013-01-22 11:02:00,19.1,-0.7,30.08,West,270,6.3,7.4,41,2.59,,,0.12,WUHU216HW,2013-01-22 16:02:00,
2013-01-22 11:07:00,19.1,-0.3,30.07,West,270,2.2,6.3,42,2.59,,,0.12,WUHU216HW,2013-01-22 16:07:00,
2013-01-22 11:12:00,19.1,-0.7,30.07,NW,315,4.7,6.7,41,2.59,,,0.12,WUHU216HW,2013-01-22 16:12:00,
2013-01-22 11:17:00,19.1,-1.8,30.07,West,270,3.4,6.7,39,2.59,,,0.12,WUHU216HW,2013-01-22 16:17:00,
2013-01-22 11:22:00,19.1,-1.3,30.07,WNW,293,1.6,6.3,40,2.59,,,0.12,WUHU216HW,2013-01-22 16:22:00,
2013-01-22 11:27:00,19.6,-0.3,30.06,West,270,2.5,6.9,41,0.00,,,0.00,WUHU216HW,2013-01-22 16:27:00,
2013-01-22 11:37:00,19.1,-1.3,30.07,NW,315,2.2,5.8,40,2.59,,,0.12,WUHU216HW,2013-01-22 16:37:00,
2013-01-22 11:42:00,19.1,-1.3,30.07,NW,315,4.0,5.8,40,2.59,,,0.12,WUHU216HW,2013-01-22 16:42:00,
2013-01-22 11:47:00,18.7,-2.2,30.06,WSW,248,4.0,4.0,39,2.59,,,0.12,WUHU216HW,2013-01-22 16:47:00,
2013-01-22 11:52:00,18.7,-1.5,30.07,NW,315,7.6,7.6,40,2.59,,,0.12,WUHU216HW,2013-01-22 16:52:00,
2013-01-22 11:57:00,18.7,-1.1,30.06,NNW,338,1.3,7.6,41,0.00,,,0.00,WUHU216HW,2013-01-22 16:57:00,
2013-01-22 12:07:00,19.1,-1.3,30.06,NNW,338,6.3,6.3,40,2.59,,,0.13,WUHU216HW,2013-01-22 17:07:00,
2013-01-22 12:12:00,19.1,-1.3,30.06,NNW,338,4.0,6.3,40,2.59,,,0.13,WUHU216HW,2013-01-22 17:12:00,
2013-01-22 12:17:00,18.9,-0.9,30.06,SSW,203,2.7,4.0,41,0.00,,,0.00,WUHU216HW,2013-01-22 17:17:00,
2013-01-22 12:27:00,19.3,0.4,30.06,SW,225,2.0,5.6,43,2.59,,,0.13,WUHU216HW,2013-01-22 17:27:00,
2013-01-22 12:32:00,19.4,0.0,30.06,South,180,2.0,6.3,42,2.59,,,0.13,WUHU216HW,2013-01-22 17:32:00,
2013-01-22 12:37:00,19.6,0.2,30.05,NNW,338,4.0,6.3,42,2.59,,,0.13,WUHU216HW,2013-01-22 17:37:00,
2013-01-22 12:42:00,19.6,-0.3,30.05,West,270,3.4,5.6,41,2.59,,,0.13,WUHU216HW,2013-01-22 17:42:00,
2013-01-22 12:47:00,19.3,-0.6,30.05,NNW,338,3.1,5.6,41,0.00,,,0.00,WUHU216HW,2013-01-22 17:47:00,
2013-01-22 12:52:00,19.1,-0.3,30.05,SW,225,1.8,4.5,42,2.59,,,0.13,WUHU216HW,2013-01-22 17:52:00,
2013-01-22 12:57:00,19.1,-0.7,30.05,NW,315,3.4,4.7,41,0.00,,,0.00,WUHU216HW,2013-01-22 17:57:00,
2013-01-22 13:02:00,18.7,-1.5,30.05,NW,315,4.0,4.7,40,2.59,,,0.14,WUHU216HW,2013-01-22 18:02:00,
2013-01-22 13:07:00,18.7,-1.1,30.05,NNW,338,1.8,5.1,41,0.00,,,0.00,WUHU216HW,2013-01-22 18:07:00,
2013-01-22 13:12:00,18.5,-1.7,30.05,WNW,293,2.5,5.4,40,2.59,,,0.14,WUHU216HW,2013-01-22 18:12:00,
2013-01-22 13:17:00,18.4,-1.4,30.05,West,270,1.3,5.4,41,0.00,,,0.00,WUHU216HW,2013-01-22 18:17:00,
2013-01-22 13:22:00,18.4,-1.4,30.05,West,270,2.5,4.7,41,2.59,,,0.14,WUHU216HW,2013-01-22 18:22:00,
2013-01-22 13:27:00,18.4,-0.9,30.05,WSW,248,2.5,4.7,42,0.00,,,0.00,WUHU216HW,2013-01-22 18:27:00,
2013-01-22 13:32:00,18.0,-1.7,30.06,NNW,338,5.1,5.1,41,2.59,,,0.14,WUHU216HW,2013-01-22 18:32:00,
2013-01-22 13:37:00,18.2,-1.1,30.06,NW,315,5.4,5.4,42,0.00,,,0.00,WUHU216HW,2013-01-22 18:37:00,
2013-01-22 13:42:00,18.4,-1.4,30.05,NW,315,3.4,5.4,41,2.59,,,0.14,WUHU216HW,2013-01-22 18:42:00,
2013-01-22 13:48:00,18.4,-0.9,30.05,WNW,293,4.7,4.7,42,0.00,,,0.00,WUHU216HW,2013-01-22 18:48:00,
2013-01-22 13:58:00,19.3,-0.6,30.06,NW,315,4.0,4.5,41,0.00,,,0.00,WUHU216HW,2013-01-22 18:58:00,
2013-01-22 14:08:00,19.3,-0.6,30.05,SSW,203,1.1,4.9,41,0.00,,,0.00,WUHU216HW,2013-01-22 19:08:00,
2013-01-22 14:18:00,18.9,0.0,30.06,NNW,338,4.9,5.1,43,0.00,,,0.00,WUHU216HW,2013-01-22 19:18:00,
2013-01-22 14:28:00,18.7,1.3,30.06,NW,315,2.5,4.7,46,0.00,,,0.00,WUHU216HW,2013-01-22 19:28:00,
2013-01-22 14:38:00,18.4,-0.4,30.06,NNW,338,0.7,4.7,43,0.00,,,0.00,WUHU216HW,2013-01-22 19:38:00,
2013-01-22 14:48:00,18.7,-0.6,30.06,West,270,2.5,4.5,42,0.00,,,0.00,WUHU216HW,2013-01-22 19:48:00,
2013-01-22 14:58:00,18.4,-1.4,30.06,SW,225,5.1,7.6,41,0.00,,,0.00,WUHU216HW,2013-01-22 19:58:00,
2013-01-22 15:08:00,18.5,-0.8,30.07,NW,315,3.1,3.6,42,0.00,,,0.00,WUHU216HW,2013-01-22 20:08:00,
2013-01-22 15:18:00,18.2,-1.1,30.07,NNE,23,1.6,3.4,42,0.00,,,0.00,WUHU216HW,2013-01-22 20:18:00,
2013-01-22 15:28:00,18.4,-0.9,30.08,WSW,248,2.9,5.4,42,0.00,,,0.00,WUHU216HW,2013-01-22 20:28:00,
2013-01-22 15:38:00,17.8,-1.4,30.08,NNW,338,1.6,6.3,42,0.00,,,0.00,WUHU216HW,2013-01-22 20:38:00,
2013-01-22 15:43:00,17.6,-1.1,30.08,West,270,4.5,6.3,43,2.59,,,0.16,WUHU216HW,2013-01-22 20:43:00,
2013-01-22 15:48:00,17.6,-0.6,30.08,NNW,338,3.1,4.5,44,0.00,,,0.00,WUHU216HW,2013-01-22 20:48:00,
2013-01-22 15:58:00,18.0,-0.8,30.09,NNW,338,2.9,5.6,43,0.00,,,0.00,WUHU216HW,2013-01-22 20:58:00,
2013-01-22 16:08:00,17.6,-0.6,30.09,WSW,248,4.0,4.7,44,0.00,,,0.00,WUHU216HW,2013-01-22 21:08:00,
2013-01-22 16:18:00,17.3,-0.5,30.10,SSW,203,2.0,5.8,45,0.00,,,0.00,WUHU216HW,2013-01-22 21:18:00,
2013-01-22 16:28:00,17.5,-0.8,30.10,North,0,3.4,5.4,44,0.00,,,0.00,WUHU216HW,2013-01-22 21:28:00,
2013-01-22 16:33:00,17.5,-1.2,30.10,NW,315,3.1,3.8,43,2.59,,,0.17,WUHU216HW,2013-01-22 21:33:00,
2013-01-22 16:38:00,17.5,-1.2,30.11,NNW,338,5.4,5.4,43,0.00,,,0.00,WUHU216HW,2013-01-22 21:38:00,
2013-01-22 16:48:00,17.3,-1.4,30.11,NNW,338,2.2,4.0,43,0.00,,,0.00,WUHU216HW,2013-01-22 21:48:00,
2013-01-22 16:58:00,16.9,-1.8,30.12,WNW,293,2.5,4.7,43,0.00,,,0.00,WUHU216HW,2013-01-22 21:58:00,
2013-01-22 17:03:00,16.9,-1.8,30.12,NW,315,2.5,4.7,43,2.59,,,0.18,WUHU216HW,2013-01-22 22:03:00,
2013-01-22 17:08:00,16.7,-1.5,30.12,West,270,2.9,4.0,44,0.00,,,0.00,WUHU216HW,2013-01-22 22:08:00,
2013-01-22 17:13:00,16.7,-1.5,30.12,West,270,0.7,4.0,44,2.59,,,0.18,WUHU216HW,2013-01-22 22:13:00,
2013-01-22 17:18:00,16.6,-1.2,30.12,WSW,248,2.0,2.9,45,0.00,,,0.00,WUHU216HW,2013-01-22 22:18:00,
2013-01-22 17:23:00,16.6,-0.7,30.13,West,270,0.9,2.7,46,2.59,,,0.18,WUHU216HW,2013-01-22 22:23:00,
2013-01-22 17:28:00,16.6,-0.3,30.13,NW,315,1.6,2.2,47,0.00,,,0.00,WUHU216HW,2013-01-22 22:28:00,
2013-01-22 17:33:00,16.6,-0.3,30.13,West,270,1.1,2.5,47,2.59,,,0.18,WUHU216HW,2013-01-22 22:33:00,
2013-01-22 17:38:00,16.4,-0.9,30.14,West,270,4.0,4.0,46,0.00,,,0.00,WUHU216HW,2013-01-22 22:38:00,
2013-01-22 17:43:00,16.4,-1.3,30.14,SW,225,1.1,5.4,45,2.59,,,0.18,WUHU216HW,2013-01-22 22:43:00,
2013-01-22 17:48:00,16.2,-1.1,30.14,NNW,338,2.9,3.4,46,2.59,,,0.18,WUHU216HW,2013-01-22 22:48:00,
2013-01-22 17:53:00,16.2,-1.1,30.14,North,0,1.1,3.8,46,2.59,,,0.18,WUHU216HW,2013-01-22 22:53:00,
2013-01-22 18:03:00,16.0,-1.3,30.14,WSW,248,3.1,3.4,46,2.59,,,0.19,WUHU216HW,2013-01-22 23:03:00,
2013-01-22 18:08:00,16.0,-1.7,30.14,WNW,293,1.8,3.4,45,0.00,,,0.00,WUHU216HW,2013-01-22 23:08:00,
2013-01-22 18:13:00,16.0,-1.7,30.15,NW,315,2.5,3.4,45,2.59,,,0.19,WUHU216HW,2013-01-22 23:13:00,
2013-01-22 18:18:00,15.8,-1.9,30.15,NE,45,3.8,3.8,45,2.59,,,0.19,WUHU216HW,2013-01-22 23:18:00,
2013-01-22 18:23:00,15.8,-1.9,30.15,NW,315,1.8,3.8,45,2.59,,,0.19,WUHU216HW,2013-01-22 23:23:00,
2013-01-22 18:33:00,15.8,-1.9,30.15,North,0,1.1,4.0,45,2.59,,,0.19,WUHU216HW,2013-01-22 23:33:00,
2013-01-22 18:38:00,15.7,-1.6,30.16,NW,315,2.5,4.0,46,0.00,,,0.00,WUHU216HW,2013-01-22 23:38:00,
2013-01-22 18:43:00,15.5,-1.7,30.15,NW,315,4.0,4.0,46,2.59,,,0.19,WUHU216HW,2013-01-22 23:43:00,
2013-01-22 18:48:00,15.5,-1.7,30.16,NW,315,2.2,4.0,46,0.00,,,0.00,WUHU216HW,2013-01-22 23:48:00,
2013-01-22 18:53:00,15.5,-1.2,30.16,NW,315,1.3,3.1,47,2.59,,,0.19,WUHU216HW,2013-01-22 23:53:00,
2013-01-22 18:58:00,15.5,-1.7,30.16,NW,315,1.8,6.7,46,0.00,,,0.00,WUHU216HW,2013-01-22 23:58:00,
2013-01-22 19:03:00,15.5,-1.2,30.17,NW,315,0.9,6.7,47,2.59,,,0.20,WUHU216HW,2013-01-23 00:03:00,
2013-01-22 19:08:00,15.3,-1.4,30.17,NW,315,1.3,5.6,47,0.00,,,0.00,WUHU216HW,2013-01-23 00:08:00,
2013-01-22 19:13:00,15.3,-1.0,30.17,NW,315,0.7,5.6,48,2.59,,,0.20,WUHU216HW,2013-01-23 00:13:00,
2013-01-22 19:18:00,15.1,-1.2,30.17,WNW,293,0.7,2.2,48,0.00,,,0.00,WUHU216HW,2013-01-23 00:18:00,
2013-01-22 19:23:00,14.9,-1.3,30.17,North,0,0.7,2.5,48,2.59,,,0.20,WUHU216HW,2013-01-23 00:23:00,
2013-01-22 19:28:00,15.1,-1.6,30.17,North,0,1.1,4.5,47,0.00,,,0.00,WUHU216HW,2013-01-23 00:28:00,
2013-01-22 19:33:00,14.9,-1.3,30.17,WNW,293,0.2,4.5,48,2.59,,,0.20,WUHU216HW,2013-01-23 00:33:00,
2013-01-22 19:38:00,14.9,-1.8,30.17,NW,315,4.7,6.9,47,0.00,,,0.00,WUHU216HW,2013-01-23 00:38:00,
2013-01-22 19:44:00,14.9,-1.8,30.18,NE,45,2.9,6.9,47,2.59,,,0.20,WUHU216HW,2013-01-23 00:44:00,
2013-01-22 19:53:00,14.8,-2.0,30.18,West,270,0.9,3.4,47,2.59,,,0.20,WUHU216HW,2013-01-23 00:53:00,
2013-01-22 19:58:00,14.8,-1.5,30.19,West,270,0.9,2.7,48,0.00,,,0.00,WUHU216HW,2013-01-23 00:58:00,
2013-01-22 20:04:00,14.6,-2.2,30.19,WSW,248,0.2,1.8,47,2.59,,,0.21,WUHU216HW,2013-01-23 01:04:00,
2013-01-22 20:13:00,14.4,-1.3,30.19,WNW,293,1.3,5.4,49,2.59,,,0.21,WUHU216HW,2013-01-23 01:13:00,
2013-01-22 20:18:00,14.4,-1.3,30.19,NW,315,2.5,5.4,49,0.00,,,0.00,WUHU216HW,2013-01-23 01:18:00,
2013-01-22 20:24:00,14.4,-0.9,30.19,NW,315,0.4,4.7,50,2.59,,,0.21,WUHU216HW,2013-01-23 01:24:00,
2013-01-22 20:33:00,14.2,-0.7,30.19,NW,315,2.9,2.9,51,2.59,,,0.21,WUHU216HW,2013-01-23 01:33:00,
2013-01-22 20:38:00,14.2,-0.7,30.19,North,0,1.1,2.9,51,0.00,,,0.00,WUHU216HW,2013-01-23 01:38:00,
2013-01-22 20:44:00,14.0,-0.9,30.19,NW,315,2.5,3.6,51,2.59,,,0.21,WUHU216HW,2013-01-23 01:44:00,
2013-01-22 20:53:00,14.2,-0.7,30.19,NNW,338,0.2,4.0,51,2.59,,,0.21,WUHU216HW,2013-01-23 01:53:00,
2013-01-22 20:58:00,14.0,0.4,30.19,NNW,338,3.6,4.5,54,0.00,,,0.00,WUHU216HW,2013-01-23 01:58:00,
2013-01-22 21:04:00,14.0,1.9,30.19,West,270,0.4,4.5,58,2.59,,,0.22,WUHU216HW,2013-01-23 02:04:00,
2013-01-22 21:13:00,13.7,1.5,30.19,NW,315,2.5,3.6,58,2.59,,,0.22,WUHU216HW,2013-01-23 02:13:00,
2013-01-22 21:18:00,13.7,1.5,30.20,NW,315,0.9,3.6,58,0.00,,,0.00,WUHU216HW,2013-01-23 02:18:00,
2013-01-22 21:25:00,13.7,1.5,30.20,NNW,338,1.3,1.3,58,2.59,,,0.22,WUHU216HW,2013-01-23 02:25:00,
2013-01-22 21:33:00,13.7,1.2,30.21,North,0,0.4,1.8,57,2.59,,,0.22,WUHU216HW,2013-01-23 02:33:00,
2013-01-22 21:38:00,13.5,-0.2,30.21,West,270,1.1,3.6,54,0.00,,,0.00,WUHU216HW,2013-01-23 02:38:00,
2013-01-22 21:45:00,13.5,-1.7,30.21,North,0,1.8,5.4,50,2.59,,,0.22,WUHU216HW,2013-01-23 02:45:00,
2013-01-22 21:53:00,13.3,-3.3,30.21,NNW,338,2.5,4.0,47,2.59,,,0.22,WUHU216HW,2013-01-23 02:53:00,
2013-01-22 21:58:00,13.3,-3.3,30.21,NW,315,2.5,4.0,47,0.00,,,0.00,WUHU216HW,2013-01-23 02:58:00,
2013-01-22 22:05:00,13.1,-3.5,30.21,WNW,293,1.6,4.0,47,2.59,,,0.23,WUHU216HW,2013-01-23 03:05:00,
2013-01-22 22:13:00,13.0,-3.6,30.22,North,0,1.8,4.0,47,2.59,,,0.23,WUHU216HW,2013-01-23 03:13:00,
2013-01-22 22:18:00,13.0,-3.6,30.22,West,270,0.7,4.0,47,0.00,,,0.00,WUHU216HW,2013-01-23 03:18:00,
2013-01-22 22:25:00,12.8,-3.8,30.22,NNW,338,1.1,2.9,47,2.59,,,0.23,WUHU216HW,2013-01-23 03:25:00,
2013-01-22 22:33:00,12.6,-3.5,30.22,NNW,338,1.1,3.4,48,2.59,,,0.23,WUHU216HW,2013-01-23 03:33:00,
2013-01-22 22:38:00,12.6,-3.5,30.22,WNW,293,0.9,3.4,48,0.00,,,0.00,WUHU216HW,2013-01-23 03:38:00,
2013-01-22 22:45:00,12.6,-3.1,30.22,NNW,338,0.4,1.8,49,2.59,,,0.23,WUHU216HW,2013-01-23 03:45:00,
2013-01-22 22:53:00,12.4,-2.7,30.22,WSW,248,0.2,5.6,50,2.59,,,0.23,WUHU216HW,2013-01-23 03:53:00,
2013-01-22 22:58:00,12.4,-2.7,30.22,WNW,293,0.7,5.6,50,0.00,,,0.00,WUHU216HW,2013-01-23 03:58:00,
2013-01-22 23:05:00,12.2,-2.9,30.22,WSW,248,0.9,1.8,50,2.59,,,0.24,WUHU216HW,2013-01-23 04:05:00,
2013-01-22 23:13:00,12.2,-2.5,30.22,WNW,293,0.2,3.4,51,2.59,,,0.24,WUHU216HW,2013-01-23 04:13:00,
2013-01-22 23:18:00,12.2,-2.9,30.22,NNW,338,2.0,3.4,50,0.00,,,0.00,WUHU216HW,2013-01-23 04:18:00,
2013-01-22 23:25:00,12.1,-3.1,30.21,West,270,0.7,3.1,50,2.59,,,0.24,WUHU216HW,2013-01-23 04:25:00,
2013-01-22 23:33:00,11.9,-3.2,30.21,West,270,1.3,1.8,50,2.59,,,0.24,WUHU216HW,2013-01-23 04:33:00,
2013-01-22 23:38:00,11.9,-3.2,30.21,West,270,1.1,1.8,50,0.00,,,0.00,WUHU216HW,2013-01-23 04:38:00,
2013-01-22 23:45:00,11.9,-3.2,30.21,NNW,338,1.1,1.6,50,2.59,,,0.24,WUHU216HW,2013-01-23 04:45:00,
2013-01-22 23:53:00,11.9,-3.2,30.22,SW,225,0.4,1.8,50,2.59,,,0.24,WUHU216HW,2013-01-23 04:53:00,
2013-01-22 23:58:00,11.7,-3.3,30.21,NW,315,0.4,1.1,50,0.00,,,0.00,WUHU216HW,2013-01-23 04:58:00,